DHK433 KBOI-KLAX

Flight info

Callsign DHK433
Flight time 1h 46m
Altitude 38000
Route HYVAL REO J7 FMG/N0459F370 FRA REBRG IRNMN2
Aircraft B738/M-SDE2E3FGHIRWXY/LB1

Departure

Time 2026-04-20 05:34
Airport Boise Air Terminal/Gowen Field (KBOI)

Arrival

Time 2026-04-20 07:21
Airport Los Angeles International Airport (KLAX)
Time Latitude Longitude Altitude Speed Heading
2026-04-20 04:38 43.56696 -116.21601 2855 ft 0 kts 212°
2026-04-20 05:19 43.56705 -116.21594 2857 ft 3 kts 217°
2026-04-20 05:19 43.56719 -116.21576 2854 ft 3 kts 243°
2026-04-20 05:19 43.56724 -116.21553 2855 ft 3 kts 287°
2026-04-20 05:20 43.56722 -116.21545 2856 ft 0 kts 295°
2026-04-20 05:24 43.56724 -116.21550 2855 ft 4 kts 295°
2026-04-20 05:24 43.56760 -116.21659 2857 ft 14 kts 294°
2026-04-20 05:24 43.56730 -116.21753 2858 ft 20 kts 185°
2026-04-20 05:24 43.56573 -116.21737 2854 ft 25 kts 175°
2026-04-20 05:25 43.56516 -116.21852 2851 ft 21 kts 288°
2026-04-20 05:25 43.56584 -116.22055 2852 ft 25 kts 295°
2026-04-20 05:25 43.56667 -116.22300 2850 ft 30 kts 295°
2026-04-20 05:25 43.56760 -116.22572 2847 ft 32 kts 296°
2026-04-20 05:26 43.56844 -116.22814 2842 ft 26 kts 296°
2026-04-20 05:26 43.56917 -116.23031 2842 ft 24 kts 295°
2026-04-20 05:26 43.56986 -116.23232 2839 ft 23 kts 295°
2026-04-20 05:26 43.57052 -116.23427 2842 ft 22 kts 295°
2026-04-20 05:27 43.57110 -116.23619 2842 ft 21 kts 278°
2026-04-20 05:27 43.57097 -116.23820 2843 ft 21 kts 263°
2026-04-20 05:27 43.57072 -116.24010 2841 ft 15 kts 256°
2026-04-20 05:27 43.57062 -116.24063 2843 ft 14 kts 256°
2026-04-20 05:28 43.57052 -116.24113 2843 ft 0 kts 254°
2026-04-20 05:28 43.57051 -116.24116 2843 ft 1 kts 254°
2026-04-20 05:28 43.57051 -116.24118 2843 ft 0 kts 254°
2026-04-20 05:29 43.57050 -116.24120 2843 ft 1 kts 254°
2026-04-20 05:29 43.57050 -116.24122 2843 ft 0 kts 254°
2026-04-20 05:32 43.57050 -116.24123 2843 ft 1 kts 254°
2026-04-20 05:32 43.57010 -116.24187 2841 ft 19 kts 195°
2026-04-20 05:32 43.56966 -116.24141 2843 ft 0 kts 116°
2026-04-20 05:33 43.56869 -116.23861 2845 ft 82 kts 115°
2026-04-20 05:34 43.56488 -116.22744 2874 ft 170 kts 115°
2026-04-20 05:34 43.55961 -116.21133 3798 ft 184 kts 113°
2026-04-20 05:34 43.55209 -116.18443 6542 ft 154 kts 108°
2026-04-20 05:35 43.54853 -116.16834 6823 ft 199 kts 106°
2026-04-20 05:35 43.54486 -116.14993 7806 ft 189 kts 104°
2026-04-20 05:35 43.54197 -116.13389 9288 ft 158 kts 103°
2026-04-20 05:35 43.53909 -116.11690 9502 ft 209 kts 103°
2026-04-20 05:36 43.53533 -116.09560 9638 ft 250 kts 104°
2026-04-20 05:36 43.53064 -116.07098 10208 ft 267 kts 105°
2026-04-20 05:36 43.52597 -116.04601 10939 ft 285 kts 103°
2026-04-20 05:36 43.52140 -116.01853 11087 ft 298 kts 102°
2026-04-20 05:37 43.51708 -115.99025 11211 ft 303 kts 101°
2026-04-20 05:37 43.51303 -115.96176 11374 ft 299 kts 101°
2026-04-20 05:37 43.50931 -115.93377 11733 ft 300 kts 100°
2026-04-20 05:37 43.50294 -115.90608 11761 ft 309 kts 115°
2026-04-20 05:38 43.49228 -115.88038 11546 ft 308 kts 124°
2026-04-20 05:38 43.47965 -115.85758 11978 ft 295 kts 132°
2026-04-20 05:38 43.46467 -115.83769 12323 ft 301 kts 143°
2026-04-20 05:38 43.44610 -115.82463 13011 ft 305 kts 163°
2026-04-20 05:39 43.42478 -115.82014 13265 ft 315 kts 181°
2026-04-20 05:39 43.40339 -115.82442 12987 ft 316 kts 199°
2026-04-20 05:39 43.38480 -115.83792 13481 ft 298 kts 217°
2026-04-20 05:39 43.36939 -115.85804 13692 ft 305 kts 234°
2026-04-20 05:40 43.36028 -115.88387 14149 ft 309 kts 255°
2026-04-20 05:40 43.35709 -115.91362 14390 ft 314 kts 268°
2026-04-20 05:40 43.35811 -115.94341 14275 ft 318 kts 277°
2026-04-20 05:40 43.36221 -115.97343 13810 ft 321 kts 284°
2026-04-20 05:41 43.36853 -116.00304 13327 ft 320 kts 289°
2026-04-20 05:41 43.37521 -116.03030 14015 ft 287 kts 288°
2026-04-20 05:41 43.38144 -116.05666 14108 ft 299 kts 288°
2026-04-20 05:41 43.38735 -116.08540 14317 ft 328 kts 278°
2026-04-20 05:42 43.38703 -116.11794 14520 ft 357 kts 256°
2026-04-20 05:42 43.37686 -116.15025 14736 ft 381 kts 243°
2026-04-20 05:42 43.36838 -116.18587 15004 ft 400 kts 256°
2026-04-20 05:42 43.36113 -116.22326 15579 ft 409 kts 253°
2026-04-20 05:43 43.35151 -116.26017 16296 ft 412 kts 248°
2026-04-20 05:43 43.34003 -116.29653 17047 ft 415 kts 246°
2026-04-20 05:43 43.32801 -116.33257 17739 ft 418 kts 245°
2026-04-20 05:43 43.31580 -116.36909 18359 ft 423 kts 245°
2026-04-20 05:44 43.30361 -116.40610 18955 ft 427 kts 246°
2026-04-20 05:44 43.29149 -116.44352 19566 ft 431 kts 246°
2026-04-20 05:44 43.27938 -116.48134 20176 ft 435 kts 246°
2026-04-20 05:44 43.26721 -116.51957 20753 ft 438 kts 246°
2026-04-20 05:45 43.25499 -116.55807 21299 ft 442 kts 246°
2026-04-20 05:45 43.24267 -116.59687 21802 ft 446 kts 246°
2026-04-20 05:45 43.23023 -116.63597 22260 ft 450 kts 246°
2026-04-20 05:45 43.21779 -116.67498 22675 ft 454 kts 246°
2026-04-20 05:46 43.20493 -116.71523 23056 ft 458 kts 246°
2026-04-20 05:46 43.19225 -116.75488 23483 ft 460 kts 246°
2026-04-20 05:46 43.17935 -116.79514 23888 ft 462 kts 246°
2026-04-20 05:46 43.16635 -116.83565 24196 ft 466 kts 246°
2026-04-20 05:47 43.15327 -116.87637 24476 ft 469 kts 246°
2026-04-20 05:47 43.13977 -116.91722 24775 ft 472 kts 243°
2026-04-20 05:47 43.12275 -116.95591 25096 ft 474 kts 233°
2026-04-20 05:47 43.10246 -116.99147 25458 ft 475 kts 231°
2026-04-20 05:48 43.08164 -117.02689 25781 ft 477 kts 231°
2026-04-20 05:48 43.06082 -117.06220 26087 ft 478 kts 231°
2026-04-20 05:48 43.04012 -117.09747 26377 ft 480 kts 231°
2026-04-20 05:48 43.01925 -117.13327 26651 ft 483 kts 232°
2026-04-20 05:49 42.99843 -117.16924 26925 ft 484 kts 232°
2026-04-20 05:49 42.97751 -117.20551 27289 ft 484 kts 232°
2026-04-20 05:49 42.95675 -117.24151 27731 ft 482 kts 232°
2026-04-20 05:49 42.93602 -117.27742 28193 ft 480 kts 232°
2026-04-20 05:50 42.91540 -117.31308 28601 ft 479 kts 232°
2026-04-20 05:50 42.89470 -117.34882 28974 ft 479 kts 232°
2026-04-20 05:50 42.87395 -117.38458 29371 ft 479 kts 232°
2026-04-20 05:50 42.85358 -117.41964 29788 ft 478 kts 232°
2026-04-20 05:51 42.83299 -117.45505 30218 ft 476 kts 232°
2026-04-20 05:51 42.81241 -117.49038 30681 ft 475 kts 231°
2026-04-20 05:51 42.79189 -117.52556 31129 ft 473 kts 232°
2026-04-20 05:51 42.77141 -117.56064 31558 ft 473 kts 232°
2026-04-20 05:52 42.75098 -117.59561 31964 ft 472 kts 231°
2026-04-20 05:52 42.73057 -117.63050 32386 ft 471 kts 231°
2026-04-20 05:52 42.71019 -117.66529 32820 ft 470 kts 231°
2026-04-20 05:52 42.68981 -117.70004 33227 ft 469 kts 231°
2026-04-20 05:53 42.66948 -117.73467 33605 ft 469 kts 231°
2026-04-20 05:53 42.64914 -117.76931 33989 ft 468 kts 231°
2026-04-20 05:53 42.62886 -117.80376 34385 ft 467 kts 231°
2026-04-20 05:53 42.60788 -117.83754 34751 ft 467 kts 225°
2026-04-20 05:54 42.58356 -117.86656 35080 ft 467 kts 217°
2026-04-20 05:54 42.55638 -117.89047 35459 ft 466 kts 208°
2026-04-20 05:54 42.52707 -117.90917 35828 ft 465 kts 204°
2026-04-20 05:54 42.49747 -117.92694 36165 ft 464 kts 204°
2026-04-20 05:55 42.46788 -117.94451 36467 ft 465 kts 204°
2026-04-20 05:55 42.43823 -117.96216 36755 ft 465 kts 204°
2026-04-20 05:55 42.40859 -117.97995 37052 ft 466 kts 204°
2026-04-20 05:55 42.37905 -117.99781 37322 ft 466 kts 204°
2026-04-20 05:56 42.34949 -118.01577 37631 ft 465 kts 204°
2026-04-20 05:56 42.32025 -118.03358 37860 ft 467 kts 204°
2026-04-20 05:56 42.29056 -118.05167 37980 ft 468 kts 204°
2026-04-20 05:56 42.26088 -118.06975 37997 ft 469 kts 204°
2026-04-20 05:57 42.20130 -118.10598 38009 ft 468 kts 204°
2026-04-20 05:57 42.14188 -118.14202 38001 ft 468 kts 204°
2026-04-20 05:58 42.08253 -118.17794 38002 ft 467 kts 204°
2026-04-20 05:58 42.02331 -118.21370 37999 ft 467 kts 204°
2026-04-20 05:59 41.96395 -118.24946 38006 ft 467 kts 204°
2026-04-20 05:59 41.90497 -118.28494 38007 ft 467 kts 204°
2026-04-20 06:00 41.84569 -118.32051 37997 ft 467 kts 204°
2026-04-20 06:00 41.78627 -118.35610 37996 ft 467 kts 204°
2026-04-20 06:01 41.72682 -118.39164 38004 ft 467 kts 204°
2026-04-20 06:01 41.66743 -118.42706 38004 ft 467 kts 204°
2026-04-20 06:02 41.60843 -118.46219 38000 ft 466 kts 204°
2026-04-20 06:02 41.54915 -118.49740 38000 ft 465 kts 204°
2026-04-20 06:03 41.48998 -118.53248 38001 ft 465 kts 204°
2026-04-20 06:03 41.43088 -118.56745 38001 ft 464 kts 204°
2026-04-20 06:04 41.37183 -118.60233 38001 ft 463 kts 204°
2026-04-20 06:04 41.31287 -118.63707 38001 ft 463 kts 204°
2026-04-20 06:05 41.25393 -118.67175 38001 ft 462 kts 204°
2026-04-20 06:05 41.19554 -118.70602 38001 ft 462 kts 204°
2026-04-20 06:06 41.13665 -118.74053 38002 ft 462 kts 204°
2026-04-20 06:06 41.07777 -118.77496 38002 ft 462 kts 204°
2026-04-20 06:07 41.01880 -118.80937 38002 ft 462 kts 204°
2026-04-20 06:07 40.95979 -118.84374 38002 ft 463 kts 204°
2026-04-20 06:08 40.90082 -118.87802 38002 ft 463 kts 204°
2026-04-20 06:08 40.84210 -118.91209 38001 ft 463 kts 204°
2026-04-20 06:09 40.78303 -118.94630 38001 ft 464 kts 204°
2026-04-20 06:09 40.72389 -118.98048 38001 ft 464 kts 204°
2026-04-20 06:10 40.66459 -119.01469 38001 ft 465 kts 204°
2026-04-20 06:10 40.60525 -119.04887 38000 ft 465 kts 204°
2026-04-20 06:11 40.54588 -119.08297 38003 ft 466 kts 204°
2026-04-20 06:11 40.48645 -119.11702 38002 ft 466 kts 204°
2026-04-20 06:12 40.42690 -119.15108 38001 ft 466 kts 204°
2026-04-20 06:12 40.36767 -119.18490 38001 ft 466 kts 204°
2026-04-20 06:13 40.31816 -119.21313 38001 ft 466 kts 204°
2026-04-20 06:13 40.24892 -119.25253 38002 ft 466 kts 204°
2026-04-20 06:14 40.19941 -119.28065 38001 ft 466 kts 204°
2026-04-20 06:14 40.13993 -119.31437 38000 ft 465 kts 204°
2026-04-20 06:15 40.08058 -119.34796 38001 ft 464 kts 204°
2026-04-20 06:15 40.02125 -119.38147 38000 ft 464 kts 204°
2026-04-20 06:16 39.96200 -119.41487 37995 ft 464 kts 204°
2026-04-20 06:16 39.90281 -119.44818 38009 ft 463 kts 204°
2026-04-20 06:17 39.84354 -119.48146 37999 ft 463 kts 204°
2026-04-20 06:17 39.78473 -119.51443 37998 ft 465 kts 203°
2026-04-20 06:18 39.72524 -119.54772 38008 ft 466 kts 203°
2026-04-20 06:18 39.66544 -119.58112 37999 ft 467 kts 203°
2026-04-20 06:19 39.60564 -119.61447 38007 ft 468 kts 203°
2026-04-20 06:19 39.54507 -119.64582 37994 ft 469 kts 195°
2026-04-20 06:20 39.48084 -119.65649 38001 ft 469 kts 179°
2026-04-20 06:20 39.41552 -119.65424 37994 ft 470 kts 178°
2026-04-20 06:21 39.35010 -119.65165 37999 ft 470 kts 179°
2026-04-20 06:21 39.28463 -119.64958 38006 ft 470 kts 179°
2026-04-20 06:22 39.21930 -119.64785 38004 ft 470 kts 179°
2026-04-20 06:22 39.15394 -119.64620 37996 ft 469 kts 179°
2026-04-20 06:23 39.08870 -119.64455 37997 ft 469 kts 179°
2026-04-20 06:23 39.02379 -119.64289 38005 ft 468 kts 179°
2026-04-20 06:24 38.95848 -119.64122 38000 ft 468 kts 179°
2026-04-20 06:24 38.89335 -119.63955 38000 ft 468 kts 179°
2026-04-20 06:25 38.82827 -119.63789 38000 ft 467 kts 179°
2026-04-20 06:25 38.76364 -119.63625 38001 ft 468 kts 179°
2026-04-20 06:26 38.69852 -119.63460 37998 ft 469 kts 179°
2026-04-20 06:26 38.63322 -119.63294 38006 ft 470 kts 179°
2026-04-20 06:27 38.56765 -119.63128 38011 ft 471 kts 179°
2026-04-20 06:27 38.50185 -119.62962 37996 ft 473 kts 179°
2026-04-20 06:28 38.43587 -119.62795 37999 ft 474 kts 179°
2026-04-20 06:28 38.36977 -119.62629 38006 ft 476 kts 179°
2026-04-20 06:29 38.30366 -119.62463 38007 ft 478 kts 179°
2026-04-20 06:29 38.23699 -119.62296 38002 ft 479 kts 179°
2026-04-20 06:30 38.17026 -119.62129 38004 ft 479 kts 179°
2026-04-20 06:30 38.10346 -119.61962 38005 ft 479 kts 179°
2026-04-20 06:31 38.03726 -119.61797 38000 ft 478 kts 179°
2026-04-20 06:31 37.97092 -119.61631 37999 ft 475 kts 179°
2026-04-20 06:32 37.90491 -119.61467 38001 ft 472 kts 179°
2026-04-20 06:32 37.83921 -119.61304 38005 ft 471 kts 179°
2026-04-20 06:33 37.77370 -119.61142 38005 ft 470 kts 179°
2026-04-20 06:33 37.70841 -119.60981 38007 ft 468 kts 179°
2026-04-20 06:34 37.64332 -119.60820 38005 ft 468 kts 179°
2026-04-20 06:35 37.54589 -119.60580 38008 ft 468 kts 179°
2026-04-20 06:35 37.48081 -119.60420 38002 ft 468 kts 179°
2026-04-20 06:36 37.41564 -119.60260 38000 ft 468 kts 179°
2026-04-20 06:36 37.35052 -119.60101 38007 ft 467 kts 179°
2026-04-20 06:37 37.28559 -119.59942 37999 ft 466 kts 179°
2026-04-20 06:37 37.22085 -119.59784 38005 ft 464 kts 179°
2026-04-20 06:38 37.15636 -119.59627 37995 ft 462 kts 179°
2026-04-20 06:38 37.09251 -119.59480 37998 ft 461 kts 180°
2026-04-20 06:39 37.02811 -119.59553 38000 ft 459 kts 181°
2026-04-20 06:39 36.96475 -119.59717 38003 ft 458 kts 181°
2026-04-20 06:40 36.90104 -119.59861 38000 ft 456 kts 181°
2026-04-20 06:40 36.83765 -119.59982 38001 ft 456 kts 181°
2026-04-20 06:41 36.77423 -119.60094 38001 ft 455 kts 181°
2026-04-20 06:41 36.71298 -119.60203 37886 ft 449 kts 186°
2026-04-20 06:42 36.65169 -119.60304 37932 ft 437 kts 186°
2026-04-20 06:42 36.59054 -119.60418 37944 ft 440 kts 186°
2026-04-20 06:43 36.52947 -119.60531 37937 ft 443 kts 186°
2026-04-20 06:43 36.46770 -119.60642 37950 ft 445 kts 186°
2026-04-20 06:44 36.40547 -119.60752 37954 ft 446 kts 186°
2026-04-20 06:44 36.34336 -119.60861 37954 ft 447 kts 186°
2026-04-20 06:45 36.28110 -119.60971 37956 ft 447 kts 186°
2026-04-20 06:45 36.21896 -119.61080 37956 ft 446 kts 186°
2026-04-20 06:46 36.15680 -119.61190 37943 ft 446 kts 186°
2026-04-20 06:46 36.09520 -119.61299 37937 ft 445 kts 186°
2026-04-20 06:47 36.03320 -119.61408 37929 ft 445 kts 186°
2026-04-20 06:47 35.97183 -119.61851 37921 ft 437 kts 196°
2026-04-20 06:48 35.91393 -119.63919 37917 ft 431 kts 203°
2026-04-20 06:48 35.85683 -119.66141 37928 ft 431 kts 202°
2026-04-20 06:49 35.79989 -119.68298 37927 ft 431 kts 202°
2026-04-20 06:49 35.74248 -119.70445 37936 ft 431 kts 202°
2026-04-20 06:50 35.68505 -119.72590 37940 ft 431 kts 202°
2026-04-20 06:50 35.62668 -119.74394 37950 ft 435 kts 197°
2026-04-20 06:51 35.56700 -119.75764 37957 ft 436 kts 196°
2026-04-20 06:51 35.50731 -119.77148 37957 ft 437 kts 197°
2026-04-20 06:52 35.44802 -119.78575 37963 ft 437 kts 197°
2026-04-20 06:52 35.38823 -119.80025 37966 ft 438 kts 197°
2026-04-20 06:52 35.35832 -119.80748 37858 ft 440 kts 197°
2026-04-20 06:53 35.32806 -119.81436 37303 ft 445 kts 192°
2026-04-20 06:53 35.29691 -119.81326 36746 ft 453 kts 174°
2026-04-20 06:53 35.26660 -119.80174 36176 ft 460 kts 160°
2026-04-20 06:53 35.23927 -119.78063 35568 ft 467 kts 147°
2026-04-20 06:54 35.21369 -119.75621 34915 ft 467 kts 146°
2026-04-20 06:54 35.18820 -119.73151 34258 ft 467 kts 146°
2026-04-20 06:54 35.16268 -119.70694 33482 ft 467 kts 146°
2026-04-20 06:54 35.13710 -119.68262 32753 ft 466 kts 147°
2026-04-20 06:55 35.11145 -119.65851 32030 ft 464 kts 147°
2026-04-20 06:55 35.08583 -119.63460 31301 ft 463 kts 147°
2026-04-20 06:55 35.06029 -119.61086 30570 ft 461 kts 147°
2026-04-20 06:55 35.03479 -119.58719 29740 ft 458 kts 147°
2026-04-20 06:56 35.00939 -119.56362 28852 ft 462 kts 147°
2026-04-20 06:56 34.98332 -119.53949 27978 ft 478 kts 146°
2026-04-20 06:56 34.95666 -119.51478 27007 ft 484 kts 146°
2026-04-20 06:56 34.93037 -119.49036 26333 ft 476 kts 146°
2026-04-20 06:57 34.90430 -119.46624 25748 ft 464 kts 147°
2026-04-20 06:57 34.87874 -119.44315 25304 ft 452 kts 147°
2026-04-20 06:57 34.85304 -119.42032 24883 ft 465 kts 147°
2026-04-20 06:57 34.82693 -119.39716 24417 ft 458 kts 147°
2026-04-20 06:58 34.80165 -119.37461 23963 ft 444 kts 147°
2026-04-20 06:58 34.77709 -119.35264 23506 ft 432 kts 147°
2026-04-20 06:58 34.76107 -119.33834 23165 ft 424 kts 147°
2026-04-20 06:58 34.73760 -119.31747 22705 ft 413 kts 148°
2026-04-20 06:59 34.71449 -119.29726 22272 ft 402 kts 148°
2026-04-20 06:59 34.68482 -119.27140 21720 ft 390 kts 148°
2026-04-20 06:59 34.66999 -119.25848 21448 ft 385 kts 148°
2026-04-20 06:59 34.64871 -119.23995 21055 ft 377 kts 148°
2026-04-20 07:00 34.62742 -119.22155 20683 ft 373 kts 148°
2026-04-20 07:00 34.60633 -119.20339 20316 ft 372 kts 148°
2026-04-20 07:00 34.58510 -119.18514 19934 ft 375 kts 148°
2026-04-20 07:00 34.56389 -119.16687 19551 ft 372 kts 147°
2026-04-20 07:01 34.54299 -119.14848 19158 ft 368 kts 146°
2026-04-20 07:01 34.52253 -119.13024 18789 ft 365 kts 146°
2026-04-20 07:01 34.50204 -119.11205 18411 ft 361 kts 146°
2026-04-20 07:01 34.48171 -119.09405 17993 ft 362 kts 146°
2026-04-20 07:02 34.46136 -119.07605 17598 ft 362 kts 147°
2026-04-20 07:02 34.44107 -119.05813 17198 ft 358 kts 147°
2026-04-20 07:02 34.42122 -119.04078 16815 ft 355 kts 147°
2026-04-20 07:02 34.40112 -119.02345 16439 ft 352 kts 147°
2026-04-20 07:03 34.38126 -119.00633 16075 ft 349 kts 147°
2026-04-20 07:03 34.36159 -118.98933 15706 ft 346 kts 147°
2026-04-20 07:03 34.34204 -118.97242 15358 ft 343 kts 147°
2026-04-20 07:03 34.32286 -118.95524 14998 ft 341 kts 145°
2026-04-20 07:04 34.30393 -118.93793 14649 ft 339 kts 145°
2026-04-20 07:04 34.28511 -118.92075 14303 ft 337 kts 145°
2026-04-20 07:04 34.26667 -118.90401 13963 ft 336 kts 146°
2026-04-20 07:04 34.24803 -118.88706 13581 ft 334 kts 145°
2026-04-20 07:05 34.22952 -118.87006 13203 ft 332 kts 145°
2026-04-20 07:05 34.21128 -118.85324 12843 ft 327 kts 145°
2026-04-20 07:05 34.19335 -118.83676 12497 ft 319 kts 145°
2026-04-20 07:05 34.17588 -118.82071 12159 ft 312 kts 145°
2026-04-20 07:06 34.15898 -118.80474 11834 ft 306 kts 142°
2026-04-20 07:06 34.14316 -118.78790 11536 ft 300 kts 140°
2026-04-20 07:06 34.12794 -118.77103 11242 ft 294 kts 140°
2026-04-20 07:06 34.11298 -118.75447 10946 ft 289 kts 140°
2026-04-20 07:07 34.09822 -118.73823 10663 ft 285 kts 140°
2026-04-20 07:07 34.08356 -118.72221 10378 ft 282 kts 140°
2026-04-20 07:07 34.06930 -118.70671 10108 ft 278 kts 140°
2026-04-20 07:07 34.05503 -118.69115 9805 ft 274 kts 140°
2026-04-20 07:08 34.04115 -118.67571 9530 ft 270 kts 139°
2026-04-20 07:08 34.03037 -118.65739 9220 ft 273 kts 114°
2026-04-20 07:08 34.02617 -118.63509 8970 ft 273 kts 101°
2026-04-20 07:08 34.02414 -118.61222 8693 ft 274 kts 99°
2026-04-20 07:09 34.02228 -118.58929 8417 ft 274 kts 99°
2026-04-20 07:09 34.02033 -118.56675 8137 ft 273 kts 99°
2026-04-20 07:09 34.01831 -118.54406 7889 ft 269 kts 99°
2026-04-20 07:09 34.01628 -118.52186 7661 ft 264 kts 100°
2026-04-20 07:10 34.01423 -118.49996 7435 ft 260 kts 100°
2026-04-20 07:10 34.01221 -118.47847 7222 ft 256 kts 100°
2026-04-20 07:10 34.01044 -118.45724 7008 ft 253 kts 94°
2026-04-20 07:10 34.01298 -118.43655 6806 ft 253 kts 80°
2026-04-20 07:11 34.01693 -118.41604 6597 ft 249 kts 81°
2026-04-20 07:11 34.02061 -118.39573 6389 ft 246 kts 81°
2026-04-20 07:11 34.02414 -118.37568 6169 ft 242 kts 82°
2026-04-20 07:11 34.02751 -118.35603 6039 ft 235 kts 83°
2026-04-20 07:12 34.02973 -118.33688 6001 ft 227 kts 86°
2026-04-20 07:12 34.03156 -118.31805 6005 ft 226 kts 86°
2026-04-20 07:12 34.03334 -118.29961 6020 ft 214 kts 88°
2026-04-20 07:12 34.03140 -118.28285 5999 ft 198 kts 120°
2026-04-20 07:13 34.02268 -118.27047 6002 ft 195 kts 147°
2026-04-20 07:13 34.01005 -118.26471 6015 ft 197 kts 175°
2026-04-20 07:13 33.99655 -118.26752 6013 ft 201 kts 204°
2026-04-20 07:13 33.98614 -118.27854 6007 ft 207 kts 235°
2026-04-20 07:14 33.98199 -118.29524 6010 ft 214 kts 267°
2026-04-20 07:14 33.98617 -118.31249 6010 ft 220 kts 301°
2026-04-20 07:14 33.99744 -118.32488 5998 ft 223 kts 336°
2026-04-20 07:14 34.01254 -118.32707 6011 ft 221 kts 13°
2026-04-20 07:15 34.02602 -118.31860 5778 ft 223 kts 49°
2026-04-20 07:15 34.03298 -118.30262 5489 ft 213 kts 80°
2026-04-20 07:15 34.03528 -118.28524 5190 ft 207 kts 86°
2026-04-20 07:15 34.03691 -118.26817 4903 ft 203 kts 86°
2026-04-20 07:16 34.03701 -118.25145 4616 ft 197 kts 102°
2026-04-20 07:16 34.03293 -118.23629 4336 ft 191 kts 122°
2026-04-20 07:16 34.02447 -118.22429 4088 ft 187 kts 141°
2026-04-20 07:16 34.01302 -118.21676 3820 ft 184 kts 162°
2026-04-20 07:17 34.00068 -118.21428 3575 ft 181 kts 180°
2026-04-20 07:17 33.98834 -118.21782 3175 ft 178 kts 204°
2026-04-20 07:17 33.97827 -118.22570 2999 ft 175 kts 223°
2026-04-20 07:17 33.97107 -118.23745 2816 ft 178 kts 248°
2026-04-20 07:18 33.96814 -118.25195 2609 ft 179 kts 257°
2026-04-20 07:18 33.96605 -118.26667 2369 ft 177 kts 261°
2026-04-20 07:18 33.96449 -118.28135 2134 ft 175 kts 262°
2026-04-20 07:18 33.96301 -118.29581 1903 ft 174 kts 262°
2026-04-20 07:19 33.96151 -118.31032 1675 ft 174 kts 262°
2026-04-20 07:19 33.96002 -118.32475 1438 ft 173 kts 262°
2026-04-20 07:19 33.95855 -118.33902 1218 ft 172 kts 262°
2026-04-20 07:19 33.95708 -118.35332 990 ft 170 kts 262°
2026-04-20 07:20 33.95564 -118.36733 756 ft 167 kts 262°
2026-04-20 07:20 33.95422 -118.38112 544 ft 166 kts 262°
2026-04-20 07:20 33.95281 -118.39493 312 ft 167 kts 262°
2026-04-20 07:20 33.95140 -118.40867 142 ft 162 kts 263°
2026-04-20 07:21 33.95051 -118.41745 122 ft 41 kts 263°
2026-04-20 07:21 33.95023 -118.41991 125 ft 33 kts 262°
2026-04-20 07:21 33.94999 -118.42110 123 ft 0 kts 184°
2026-04-20 07:21 33.94991 -118.42111 124 ft 3 kts 183°
2026-04-20 07:22 33.94979 -118.42111 125 ft 7 kts 183°